Chicago Lansing, IL

4:53 AM CDT on August 17, 2017 (GMT -0500)
Lansing Municipal

Weather History for KIGQ - October, 2012

Change the Weather History Date:

Monday, October 8, 2012

  Actual Average (KGYY) Record (KGYY)
Temperature  
Mean Temperature 44 °F -  
Max Temperature 59 °F 63 °F 91 °F (2007)
Min Temperature 28 °F 43 °F 30 °F (1952)
Degree Days  
Heating Degree Days 22    
Moisture  
Dew Point 27 °F    
Average Humidity 56    
Maximum Humidity 83    
Minimum Humidity 29    
Precipitation  
Precipitation 0.00 in - - ()
Sea Level Pressure  
Sea Level Pressure 30.11 in    
Wind  
Wind Speed 6 mph (SSW)    
Max Wind Speed 20 mph    
Max Gust Speed 32 mph    
Visibility 10 miles    
Events      
Averages and records for this station are not official NWS values.
T = Trace of Precipitation, MM = Missing Value Source: NWS Daily Summary

Daily Weather History Graph

Daily Weather History Graph

Search for Another Location

Airport or City:

Trip Planner

Search our weather history database for the weather conditions in past years. The results will help you decide how hot, cold, wet, or windy it might be!

Date:

Astronomy

Oct. 08, 2012 Rise Set
Actual Time 6:54 AM CDT 6:19 PM CDT
Civil Twilight 6:27 AM CDT 6:47 PM CDT
Nautical Twilight 5:55 AM CDT 7:19 PM CDT
Astronomical Twilight 5:22 AM CDT 7:51 PM CDT
Moon No Moon Rise 2:13 PM CDT (10/8)
Length of Visible Light 12h 19m
Length of Day
11h 24m
Last Quarter, 46% of the Moon is Illuminated
Oct 8
Last Quarter
Oct 15
New
Oct 21
First Quarter
Oct 29
Full
Nov 6
Last Quarter

Hourly Weather History & Observations

Time (CDT) Temp. Windchill Dew Point Humidity Pressure Visibility Wind Dir Wind Speed Gust Speed Precip Events Conditions
12:15 AM 32.0 °F - 24.1 °F 73% 30.16 in 10.0 mi Calm Calm - N/A   Clear
12:35 AM 31.6 °F - 24.3 °F 74% 30.16 in 10.0 mi Calm Calm - N/A   Clear
12:55 AM 32.0 °F - 24.6 °F 74% 30.16 in 10.0 mi Calm Calm - N/A   Clear
1:15 AM 31.3 °F - 24.8 °F 77% 30.16 in 10.0 mi Calm Calm - N/A   Clear
1:35 AM 31.1 °F - 24.8 °F 77% 30.17 in 10.0 mi Calm Calm - N/A   Clear
1:55 AM 30.9 °F - 24.6 °F 77% 30.17 in 10.0 mi Calm Calm - N/A   Clear
2:15 AM 30.4 °F 25.6 °F 24.6 °F 79% 30.17 in 10.0 mi South 4.6 mph - N/A   Clear
2:35 AM 32.0 °F 28.7 °F 25.2 °F 76% 30.16 in 10.0 mi South 3.5 mph - N/A   Clear
2:55 AM 31.1 °F - 25.3 °F 79% 30.16 in 10.0 mi Calm Calm - N/A   Clear
3:15 AM 30.2 °F 26.7 °F 24.6 °F 80% 30.16 in 10.0 mi South 3.5 mph - N/A   Clear
3:35 AM 30.6 °F 27.1 °F 25.7 °F 82% 30.16 in 10.0 mi South 3.5 mph - N/A   Clear
3:55 AM 29.3 °F 25.6 °F 24.4 °F 82% 30.16 in 10.0 mi South 3.5 mph - N/A   Clear
4:15 AM 30.2 °F 25.4 °F 25.2 °F 82% 30.16 in 10.0 mi South 4.6 mph - N/A   Clear
4:35 AM 29.5 °F - 24.6 °F 82% 30.16 in 10.0 mi Calm Calm - N/A   Clear
4:55 AM 29.8 °F - 25.0 °F 82% 30.16 in 10.0 mi Calm Calm - N/A   Clear
5:15 AM 28.8 °F - 24.3 °F 83% 30.16 in 10.0 mi Calm Calm - N/A   Clear
5:35 AM 29.8 °F 24.9 °F 24.6 °F 81% 30.17 in 10.0 mi SSW 4.6 mph - N/A   Clear
5:55 AM 30.2 °F 25.4 °F 24.8 °F 80% 30.17 in 10.0 mi SSW 4.6 mph - N/A   Clear
6:15 AM 29.8 °F 26.3 °F 24.4 °F 80% 30.17 in 10.0 mi SSW 3.5 mph - N/A   Clear
6:35 AM 30.2 °F - 24.8 °F 80% 30.18 in 10.0 mi Calm Calm - N/A   Clear
6:55 AM 29.8 °F 24.9 °F 24.4 °F 80% 30.17 in 10.0 mi South 4.6 mph - N/A   Clear
7:15 AM 30.0 °F 26.5 °F 24.4 °F 80% 30.17 in 10.0 mi South 3.5 mph - N/A   Clear
7:35 AM 31.1 °F 26.4 °F 25.2 °F 79% 30.18 in 10.0 mi South 4.6 mph - N/A   Clear
7:55 AM 32.0 °F 28.7 °F 26.6 °F 80% 30.18 in 10.0 mi South 3.5 mph - N/A   Clear
8:15 AM 34.7 °F 31.8 °F 29.1 °F 80% 30.18 in 10.0 mi SSW 3.5 mph - N/A   Clear
8:35 AM 37.6 °F 31.0 °F 29.3 °F 72% 30.18 in 10.0 mi SW 9.2 mph - N/A   Clear
8:55 AM 40.3 °F 34.4 °F 29.3 °F 65% 30.18 in 10.0 mi SSW 9.2 mph - N/A   Clear
9:15 AM 43.2 °F 37.0 °F 29.7 °F 59% 30.18 in 10.0 mi SSW 11.5 mph - N/A   Clear
9:35 AM 45.5 °F 40.3 °F 29.5 °F 54% 30.18 in 10.0 mi SSW 10.4 mph 16.1 mph N/A   Clear
9:55 AM 47.7 °F - 28.8 °F 48% 30.18 in 10.0 mi SSW 13.8 mph 18.4 mph N/A   Clear
10:15 AM 49.5 °F - 28.4 °F 44% 30.17 in 10.0 mi SSW 13.8 mph 21.9 mph N/A   Clear
10:35 AM 50.4 °F - 28.2 °F 42% 30.17 in 10.0 mi South 16.1 mph 23.0 mph N/A   Clear
10:55 AM 52.0 °F - 28.2 °F 40% 30.17 in 10.0 mi SW 16.1 mph 20.7 mph N/A   Clear
11:15 AM 53.4 °F - 28.0 °F 38% 30.16 in 10.0 mi SW 17.3 mph 20.7 mph N/A   Clear
11:35 AM 54.0 °F - 27.5 °F 36% 30.16 in 10.0 mi SSW 12.7 mph 18.4 mph N/A   Clear
11:55 AM 55.6 °F - 27.5 °F 34% 30.14 in 10.0 mi SSW 16.1 mph 19.6 mph N/A   Clear
12:15 PM 55.9 °F - 27.1 °F 33% 30.14 in 10.0 mi SSW 13.8 mph 21.9 mph N/A   Clear
12:35 PM 56.5 °F - 25.0 °F 30% 30.13 in 10.0 mi SSW 16.1 mph 26.5 mph N/A   Clear
12:55 PM 56.8 °F - 25.7 °F 30% 30.12 in 10.0 mi SW 18.4 mph 25.3 mph N/A   Clear
1:15 PM 57.0 °F - 25.5 °F 30% 30.11 in 10.0 mi SSW 19.6 mph 31.1 mph N/A   Clear
1:35 PM 57.2 °F - 25.3 °F 29% 30.09 in 10.0 mi South 17.3 mph 23.0 mph N/A   Clear
1:55 PM 57.7 °F - 25.9 °F 29% 30.09 in 10.0 mi WSW 12.7 mph 27.6 mph N/A   Clear
2:15 PM 58.1 °F - 26.2 °F 30% 30.08 in 10.0 mi SW 15.0 mph 32.2 mph N/A   Clear
2:35 PM 57.9 °F - 26.1 °F 30% 30.07 in 10.0 mi SSW 16.1 mph 25.3 mph N/A   Clear
2:55 PM 59.2 °F - 27.0 °F 29% 30.07 in 10.0 mi WSW 16.1 mph 23.0 mph N/A   Clear
3:15 PM 58.3 °F - 26.8 °F 30% 30.06 in 10.0 mi SW 16.1 mph 27.6 mph N/A   Clear
3:35 PM 58.1 °F - 26.8 °F 30% 30.05 in 10.0 mi SW 15.0 mph - N/A   Clear
3:55 PM 58.1 °F - 27.0 °F 30% 30.04 in 10.0 mi SSW 17.3 mph 26.5 mph N/A   Clear
4:15 PM 57.9 °F - 27.5 °F 31% 30.04 in 10.0 mi SW 13.8 mph 25.3 mph N/A   Clear
4:35 PM 57.9 °F - 27.1 °F 31% 30.04 in 10.0 mi SW 18.4 mph 21.9 mph N/A   Clear
4:55 PM 57.2 °F - 27.3 °F 32% 30.03 in 10.0 mi SW 13.8 mph 20.7 mph N/A   Clear
5:15 PM 56.3 °F - 27.9 °F 34% 30.03 in 10.0 mi SSW 12.7 mph 20.7 mph N/A   Clear
5:35 PM 55.4 °F - 28.4 °F 36% 30.03 in 10.0 mi SSW 16.1 mph - N/A   Clear
5:55 PM 55.0 °F - 27.5 °F 35% 30.03 in 10.0 mi SSW 12.7 mph 21.9 mph N/A   Clear
6:15 PM 53.4 °F - 28.4 °F 38% 30.04 in 10.0 mi SSW 9.2 mph 18.4 mph N/A   Clear
6:35 PM 50.9 °F - 29.3 °F 43% 30.04 in 10.0 mi SSW 8.1 mph - N/A   Clear
6:55 PM 47.5 °F - 29.7 °F 50% 30.04 in 10.0 mi South 8.1 mph - N/A   Clear
7:15 PM 48.0 °F - 30.2 °F 50% 30.05 in 10.0 mi South 6.9 mph - N/A   Clear
7:35 PM 45.7 °F 41.5 °F 30.2 °F 55% 30.04 in 10.0 mi South 8.1 mph - N/A   Clear
7:55 PM 46.4 °F 41.9 °F 30.2 °F 53% 30.05 in 10.0 mi South 9.2 mph - N/A   Clear
8:15 PM 46.4 °F 42.4 °F 30.4 °F 54% 30.06 in 10.0 mi South 8.1 mph - N/A   Clear
8:35 PM 45.5 °F 41.8 °F 30.4 °F 56% 30.06 in 10.0 mi South 6.9 mph - N/A   Clear
8:55 PM 44.2 °F 39.7 °F 30.6 °F 59% 30.06 in 10.0 mi South 8.1 mph - N/A   Clear
9:15 PM 44.4 °F 39.5 °F 30.6 °F 58% 30.06 in 10.0 mi South 9.2 mph - N/A   Clear
9:35 PM 43.9 °F 38.8 °F 30.7 °F 60% 30.06 in 10.0 mi South 9.2 mph - N/A   Clear
9:55 PM 43.5 °F 38.9 °F 31.1 °F 62% 30.06 in 10.0 mi South 8.1 mph - N/A   Clear
10:15 PM 43.0 °F 37.2 °F 31.3 °F 63% 30.05 in 10.0 mi South 10.4 mph - N/A   Clear
10:35 PM 44.6 °F 39.2 °F 31.6 °F 60% 30.05 in 10.0 mi South 10.4 mph - N/A   Clear
10:55 PM 44.8 °F 40.4 °F 32.0 °F 61% 30.05 in 10.0 mi South 8.1 mph - N/A   Clear
11:15 PM 45.5 °F 41.3 °F 32.0 °F 59% 30.05 in 10.0 mi South 8.1 mph - N/A   Clear
11:35 PM 46.6 °F - 32.0 °F 57% 30.04 in 10.0 mi SSW 10.4 mph 17.3 mph N/A   Clear
11:55 PM 46.4 °F 41.5 °F 32.0 °F 57% 30.04 in 10.0 mi SSW 10.4 mph - N/A   Clear